Regional Weather Roundup
Issued by NWS

Home | Current Version | Previous Version | Graphics & Text | Print | Product List | Glossary On
Versions: 1 2 3 4 5 6 7 8 9 10 11 12 13 14 15 16 17 18 19 20 21 22 23 24 25 26 27 28
000
ASUS45 KSLC 201410
RWRUT

UTAH REGIONAL WEATHER ROUNDUP
NATIONAL WEATHER SERVICE SALT LAKE CITY UT
800 AM MDT THU JUL 20 2017

UTZ001>011-023>025-201500-

NORTHERN UTAH

CITY           SKY/WX    TMP DP  RH WIND       PRES   REMARKS
BRIGHAM CITY   MOSUNNY   73  56  53 N6        30.08R
DUGWAY         MOSUNNY   78  54  43 SE8       30.08R
HILL AFB       PTSUNNY   76  52  42 SE12      30.12R
LOGAN          MOSUNNY   68  58  70 N5        30.09R
OGDEN          MOSUNNY   76  52  43 S12       30.08R
SALT LAKE CITY PTSUNNY   79  56  45 S18G26    30.07R
TOOELE VALLEY  MOSUNNY   77  55  47 S18G24    30.07S
WENDOVER       MOSUNNY   76  56  49 N6        30.05R
HEBER CITY     CLOUDY    63  55  77 CALM      30.21S
WEST JORDAN    PTSUNNY   73  62  66 S10       30.12R

$$

UTZ011>015-024>027-201500-

CENTRAL/NORTHEAST UTAH

CITY           SKY/WX    TMP DP  RH WIND       PRES   REMARKS
PROVO AIRPORT  PTSUNNY   71  58  63 S5        30.15R
MOAB/CANYONLAN SUNNY     77  61  57 E6        30.14R
DELTA          PTSUNNY   73  54  49 S14       30.15R
PRICE          CLOUDY    69  51  52 CALM      30.26R
ROOSEVELT      CLOUDY    64  55  72 CALM      30.26S
VERNAL         CLOUDY    66  62  87 CALM      30.25R

$$

UTZ013>016-019>022-027-201500-

SOUTHERN UTAH

CITY           SKY/WX    TMP DP  RH WIND       PRES   REMARKS
BRYCE CANYON   MOSUNNY   59  52  77 CALM      30.41R
CEDAR CITY     CLOUDY    70  59  68 SW13      30.24R
MILFORD        PTSUNNY   69  58  67 SW13      30.18R
ST GEORGE      CLOUDY    81  62  52 E12       30.09R
HANKSVILLE     MOSUNNY   73  54  49 CALM      30.16S
BLANDING       PTSUNNY   69  56  62 SW6       30.35R

$$

REGIONAL REPORTS     COLORADO/ARIZONA

CITY           SKY/WX    TMP DP  RH WIND       PRES   REMARKS
CRAIG, CO      CLOUDY    64  54  69 CALM      30.31R
GRAND JUNCTION SUNNY     74  60  61 SE3       30.21R
RIFLE, CO      SUNNY     67  58  72 CALM      30.28R
MONTROSE, CO   SUNNY     66  56  70 SE6       30.30S
CORTEZ, CO     SUNNY     72  53  51 N5        30.28R
COLORADO CITY    N/A     66  63  88 CALM      30.26R
PAGE, AZ       SUNNY     77  58  51 CALM      30.17R
GRAND CANYON   MOSUNNY   63  56  78 CALM      30.36R
KINGMAN, AZ    PTSUNNY   76  65  68 SE9       30.13R
FLAGSTAFF, AZ  PTSUNNY   63  58  83 CALM      30.38R

$$

REGIONAL REPORTS    NEVADA/IDAHO/WYOMING

CITY           SKY/WX    TMP DP  RH WIND       PRES   REMARKS
LAS VEGAS, NV  CLOUDY    83  68  60 SW3       30.01R
ELY, NY        MOSUNNY   64  53  67 S5        30.25R
ELKO, NV       PTSUNNY   58  28  32 E5        30.15R
POCATELLO, ID  SUNNY     72  59  63 CALM      30.07R
BURLEY, ID     MOSUNNY   66  51  58 SW6       30.04R
FORT BRIDGER,    N/A     63  49  60 CALM      30.33F
EVANSTON, WY   CLOUDY    63  50  62 SE3       30.31R
ROCK SPRINGS,  CLOUDY    64  51  62 CALM      30.29S
KEMMERER, WY     N/A     61  46  59 N7        30.33S

$$




USA.gov is the U.S. government's official web portal to all federal, state and local government web resources and services.